Main page
METAR-TAF:

METAR-TAF

Airports :

Parsabad-Moghan Airport

Parsabad, Iran

latitude: 39-36-13N, longitude: 47-52-53E, elevation: 77 m

Current weather observation

The report was made 1 hour and 13 minutes ago, at 07:00 UTC
Wind 4 kt from the South/Southeast
Temperature 8°C
Humidity 93%
Pressure 1022 hPa
Visibility: 5000 m
Broken clouds at a height of 2500 ft
Overcast at a height of 7000 ft
rain

METAR: OITP 200700Z 16004KT 5000 RA BKN025 OVC070 08/07 Q1022

Time: 11:43 (08:13 UTC)


TAF: missing

Weather observations and forecasts of more than 4000 airports (METAR and TAF reports).

The available stations are represented by yellow and red dots on the map.

Hover mouse over dot to see the name of the station.

Then click to see weather observations and forecasts.

To change the map : click on the green buttons with a black cross to zoom in, on the green button with a dash to zoom out, or on the green arrows for adjacent maps.


METAR-TAF: